Powrót do katalogu

CZ-6A DEB

AktywnyPO
NORAD 55225·DEBRIS·🇨🇳 China

Wystrzelony Nov 11, 2022 z Taiyuan Satellite Launch Center

Loading…

Następne Przeloty (najbliższe 24 godziny)

TLE

ŚwieżeSource: Space-Track

Epoka: Sep 13, 2026, 16:25 UTC

1 55225U 22151WS  26256.68450516  .00005732  00000-0  10740-2 0  9997
2 55225  98.7246 329.1079 0121684  95.5636 265.9455 14.60511329196761

Śledź CZ-6A DEB w czasie rzeczywistym z AllMySat

Download on the App Store